User: anonymous   Login
Location: The Saddle
(36.8333°N, 80.3417°W)
Time: 05:18:16
(UTC-05:00)
Language:

ZACube-1 - Orbit

View from above orbital plane
View from above orbital plane
View from above satellite
View from above satellite

Ground track
Ground track

The orbit data is extracted from the following two-line orbital elements,

1 39417U 13066B   24064.85703428  .00004335  00000-0  46918-3 0  9999
2 39417  97.7221  23.3633 0053223 143.7028 216.7818 14.87721678556060
Epoch (UTC): 04 March 2024 20:34:07
Eccentricity: 0.0053223
inclination: 97.7221°
perigee height: 568 km
apogee height: 642 km
right ascension of ascending node: 23.3633°
argument of perigee: 143.7028°
revolutions per day: 14.87721678
mean anomaly at epoch: 216.7818°
orbit number at epoch: 55606

The dashed part of the orbit path shows where the satellite is in the earth's shadow,  

DLR